MOLNIYA 3-50

Last updated on Aug. 7, 2020, 5:36 a.m. UTC

1 25847U 99036A   20218.66497380 -.00000247  00000-0 -10411-2 0  9993
2 25847  62.3644  84.0763 7373766 276.1271  12.2062  2.00667342154469
UTC
Height (km)
Latitude
Longitude
Inclination
Orbital Period
UTC large
Height (km)
Speed (km/s)
/
Latitude / Longitude
Inclination (degrees)
Orbital Period (minutes)
Azimuth
Elevation
Range (km)
Doppler Factor
iOS Compass Heading
iOS Angle

Next 30 passes for location: Hong Kong

Rise time Rise Azimuth (degrees) Set time Set Azimuth (degrees) Duration Max altitude (degrees)

No matching passes for this satellites